TimeEST,TemperatureF,Dew PointF,Humidity,Sea Level PressureIn,VisibilityMPH,Wind Direction,Wind SpeedMPH,Gust SpeedMPH,PrecipitationIn,Events,Conditions,WindDirDegrees,DateUTC
1:53 AM,37.9,26.1,62,29.90,10.0,WSW,5.8,-,N/A,,Overcast,250,2013-01-01 06:53:00
2:53 AM,37.9,26.1,62,29.90,10.0,WSW,4.6,-,N/A,,Overcast,240,2013-01-01 07:53:00
3:53 AM,37.9,27.0,65,29.91,10.0,WSW,6.9,-,N/A,,Mostly Cloudy,250,2013-01-01 08:53:00
4:53 AM,37.9,27.0,65,29.90,10.0,West,5.8,-,N/A,,Overcast,260,2013-01-01 09:53:00
5:53 AM,37.9,26.1,62,29.90,10.0,West,8.1,-,N/A,,Overcast,260,2013-01-01 10:53:00
6:53 AM,37.9,26.1,62,29.91,10.0,WSW,6.9,-,N/A,,Overcast,250,2013-01-01 11:53:00
7:53 AM,37.9,26.1,62,29.91,10.0,Variable,6.9,-,N/A,,Overcast,0,2013-01-01 12:53:00
8:53 AM,37.9,27.0,65,29.92,10.0,Variable,5.8,-,N/A,,Overcast,0,2013-01-01 13:53:00
9:53 AM,39.0,26.1,60,29.92,10.0,West,9.2,-,N/A,,Overcast,280,2013-01-01 14:53:00
10:53 AM,39.0,26.1,60,29.91,10.0,West,6.9,-,N/A,,Overcast,280,2013-01-01 15:53:00
11:53 AM,37.0,27.0,67,29.89,10.0,NNW,8.1,-,0.00,,Overcast,340,2013-01-01 16:53:00
12:10 PM,37.4,26.6,65,29.87,10.0,NNW,11.5,-,0.00,,Overcast,330,2013-01-01 17:10:00
12:32 PM,37.4,24.8,60,29.88,10.0,NW,9.2,21.9,0.00,,Overcast,320,2013-01-01 17:32:00
12:53 PM,37.0,24.1,59,29.90,10.0,NW,5.8,-,0.00,,Overcast,310,2013-01-01 17:53:00
1:53 PM,37.0,24.1,59,29.86,10.0,WNW,8.1,-,N/A,,Overcast,300,2013-01-01 18:53:00
2:53 PM,37.9,21.9,53,29.87,10.0,NW,4.6,-,N/A,,Scattered Clouds,310,2013-01-01 19:53:00
3:53 PM,37.0,18.0,46,29.91,10.0,NNW,8.1,18.4,N/A,,Scattered Clouds,340,2013-01-01 20:53:00
4:53 PM,34.0,18.0,52,29.92,10.0,North,6.9,-,N/A,,Clear,350,2013-01-01 21:53:00
5:53 PM,33.1,14.0,46,29.95,10.0,NNW,10.4,17.3,N/A,,Clear,330,2013-01-01 22:53:00
6:53 PM,32.0,14.0,48,29.98,10.0,NW,6.9,-,N/A,,Clear,310,2013-01-01 23:53:00
7:53 PM,30.9,14.0,50,29.99,10.0,NNW,8.1,-,N/A,,Clear,330,2013-01-02 00:53:00
8:53 PM,28.9,14.0,54,30.00,10.0,NNW,11.5,-,N/A,,Clear,330,2013-01-02 01:53:00
9:53 PM,27.0,12.0,53,30.03,10.0,NW,10.4,-,N/A,,Clear,320,2013-01-02 02:53:00
10:53 PM,26.1,9.0,49,30.04,10.0,NW,12.7,21.9,N/A,,Clear,310,2013-01-02 03:53:00
11:53 PM,25.0,10.0,53,30.05,10.0,North,6.9,-,N/A,,Clear,350,2013-01-02 04:53:00